TimeMDT,TemperatureF,Dew PointF,Humidity,Sea Level PressureIn,VisibilityMPH,Wind Direction,Wind SpeedMPH,Gust SpeedMPH,PrecipitationIn,Events,Conditions,WindDirDegrees,DateUTC
12:53 AM,39.9,28.9,65,30.41,10.0,SSE,5.8,-,N/A,,Partly Cloudy,150,2013-10-05 06:53:00
1:53 AM,39.9,30.0,68,30.42,10.0,South,3.5,-,N/A,,Clear,190,2013-10-05 07:53:00
2:53 AM,37.9,28.9,70,30.43,10.0,SSE,5.8,-,N/A,,Clear,160,2013-10-05 08:53:00
3:53 AM,37.0,28.9,73,30.43,10.0,SSE,6.9,-,N/A,,Clear,150,2013-10-05 09:53:00
4:53 AM,37.0,28.9,73,30.44,10.0,South,5.8,-,N/A,,Clear,170,2013-10-05 10:53:00
5:53 AM,37.0,28.0,70,30.45,10.0,Calm,Calm,-,N/A,,Clear,0,2013-10-05 11:53:00
6:53 AM,36.0,28.0,73,30.47,10.0,SSE,6.9,-,N/A,,Clear,160,2013-10-05 12:53:00
7:53 AM,35.1,28.0,76,30.48,10.0,SE,5.8,-,N/A,,Partly Cloudy,130,2013-10-05 13:53:00
8:53 AM,41.0,30.0,65,30.48,10.0,South,3.5,-,N/A,,Clear,170,2013-10-05 14:53:00
9:53 AM,46.0,30.0,54,30.49,10.0,SE,4.6,-,N/A,,Clear,140,2013-10-05 15:53:00
10:53 AM,51.1,30.0,44,30.48,10.0,NE,3.5,-,N/A,,Scattered Clouds,40,2013-10-05 16:53:00
11:53 AM,54.0,30.9,41,30.48,10.0,North,4.6,-,N/A,,Scattered Clouds,350,2013-10-05 17:53:00
12:53 PM,55.0,28.0,35,30.47,10.0,NNW,6.9,-,N/A,,Scattered Clouds,340,2013-10-05 18:53:00
1:53 PM,55.9,27.0,33,30.44,10.0,North,6.9,-,N/A,,Mostly Cloudy,360,2013-10-05 19:53:00
2:53 PM,55.9,26.1,32,30.43,10.0,North,4.6,16.1,N/A,,Scattered Clouds,350,2013-10-05 20:53:00
3:53 PM,57.0,27.0,32,30.41,10.0,NNW,4.6,-,N/A,,Scattered Clouds,330,2013-10-05 21:53:00
4:53 PM,57.0,28.0,33,30.41,10.0,NNW,5.8,-,N/A,,Scattered Clouds,330,2013-10-05 22:53:00
5:53 PM,57.0,28.9,34,30.41,10.0,NW,6.9,-,N/A,,Scattered Clouds,310,2013-10-05 23:53:00
6:53 PM,54.0,30.0,40,30.42,10.0,North,4.6,-,N/A,,Partly Cloudy,350,2013-10-06 00:53:00
7:53 PM,53.1,28.0,38,30.43,10.0,North,3.5,-,N/A,,Partly Cloudy,360,2013-10-06 01:53:00
8:53 PM,48.9,28.9,46,30.43,10.0,SSE,3.5,-,N/A,,Clear,160,2013-10-06 02:53:00
9:53 PM,46.9,32.0,56,30.43,10.0,SSE,8.1,-,N/A,,Clear,150,2013-10-06 03:53:00
10:53 PM,45.0,30.9,58,30.43,10.0,ESE,6.9,-,N/A,,Clear,120,2013-10-06 04:53:00
11:53 PM,45.0,30.0,56,30.41,10.0,SSE,5.8,-,N/A,,Clear,150,2013-10-06 05:53:00